Dewpoint
66 68 68 73 75 72 73 70 72 73 76 75 76 73 74 75 73 71 70 71 70 69 64 71 80 77 81 79 78 76 78 73 74 76 77 78 77 73 72 73 73 73 72 72 73 73 73 73 73 73 72 72 71 70 69 68 68 67 66 65 66 65 66 65 65 66 66 66 67 68 69 70 70 70
74 70 69 68 70 73 69 70 67 75 75 76 72 73 76 78 77 75 73 71 72 70 66 63 74 80 76 76 77 77 78 74 73 79 77 76 76 73 72 73 72 72 72 71 71 72 71 71 72 71 71 70 70 69 68 68 67 66 65 64 65 63 65 64 64 65 65 65 66 67 68 69 69 69
74 75 73 74 73 73 71 72 66 74 72 76 75 75 81 78 80 79 76 71 77 70 70 69 67 73 77 71 74 73 78 75 74 78 78 79 75 72 73 73 72 72 71 70 70 70 70 69 69 69 69 69 68 68 67 66 66 64 64 64 63 62 63 63 64 64 64 65 65 66 67 68 68 68
74 76 76 78 77 75 76 76 72 73 77 75 72 70 79 79 79 78 77 73 72 75 69 70 69 66 77 79 75 78 78 76 74 76 76 79 74 75 74 73 72 71 70 69 69 68 68 67 68 69 69 69 68 66 66 66 65 64 63 63 61 62 62 63 63 63 64 64 65 66 66 67 67 68
74 76 76 76 75 77 75 76 73 70 73 75 75 76 77 74 75 74 74 71 72 75 76 75 71 69 72 73 78 77 76 78 75 75 78 79 76 77 75 74 71 70 69 68 67 67 67 67 67 68 67 67 67 66 65 64 64 62 62 61 61 61 61 62 62 63 63 64 64 64 65 66 67 67
74 76 77 76 74 76 75 73 70 70 67 68 68 70 70 74 72 75 73 74 73 72 75 75 77 74 72 69 78 79 77 76 78 77 78 74 76 77 76 74 73 70 69 68 67 67 66 66 66 67 67 66 65 64 64 63 62 62 61 60 60 60 59 60 61 62 62 63 63 64 64 65 66 66
75 75 77 74 75 71 72 73 71 70 69 69 70 67 68 70 70 74 74 74 73 73 74 77 72 74 79 76 77 79 76 78 78 77 74 74 72 75 76 75 73 69 68 67 66 66 66 65 65 65 64 65 64 63 62 62 61 60 60 59 59 59 59 59 59 60 61 61 62 63 64 64 65 66
74 74 75 73 73 73 74 75 75 74 73 72 73 74 79 77 74 76 80 76 74 74 73 76 76 76 75 77 78 76 77 76 77 76 77 78 74 74 75 75 73 70 68 67 66 66 65 64 63 63 63 62 62 62 61 61 60 59 58 58 58 59 58 57 58 59 59 59 60 62 63 64 64 65
75 74 73 73 74 75 75 75 74 73 73 73 72 73 74 76 76 75 76 76 78 76 74 75 76 78 77 76 77 77 74 76 78 79 79 77 76 78 74 74 71 69 67 67 66 65 64 64 63 63 62 61 60 59 60 59 58 58 57 57 58 58 57 57 57 57 57 58 59 59 61 62 63 63
73 72 74 73 74 73 73 72 73 74 74 73 71 72 75 75 75 75 76 76 76 76 76 76 76 78 76 76 76 77 78 77 76 77 77 75 76 78 77 73 70 68 66 65 64 65 64 64 62 62 62 60 60 60 60 59 59 58 56 55 56 57 56 56 56 56 57 57 57 57 58 60 61 62
70 70 71 72 73 73 73 72 72 74 73 72 73 75 74 74 76 76 75 75 76 76 75 75 75 75 76 76 75 77 76 75 74 75 77 76 76 79 79 79 72 69 67 67 66 64 64 64 61 60 60 60 60 59 59 60 59 58 57 55 56 56 56 56 56 55 56 57 57 58 57 57 59 61
66 68 68 66 69 71 73 73 73 74 74 74 73 73 75 75 75 73 74 75 75 75 74 74 74 75 76 78 76 78 80 76 76 76 74 74 76 77 83 79 77 76 70 69 64 65 65 63 62 61 61 61 60 60 59 60 60 59 58 57 58 57 56 56 56 56 55 55 56 57 57 57 57 58
69 67 65 65 64 70 76 75 74 73 75 73 74 75 75 76 76 75 74 74 76 76 75 74 75 76 76 75 74 74 74 73 73 77 76 74 78 78 75 77 80 79 77 74 66 65 64 62 61 59 60 60 61 60 59 60 62 61 59 58 58 58 57 56 56 55 55 55 55 56 57 57 56 56
67 65 64 63 73 75 76 73 73 72 73 75 74 77 77 75 75 75 76 75 75 74 75 74 74 73 72 72 73 72 72 73 74 73 74 73 74 74 74 76 76 76 74 73 73 68 67 64 64 61 60 59 61 57 58 57 57 60 59 59 58 58 57 57 56 55 55 55 55 55 55 56 56 56
67 65 66 65 69 74 77 75 72 72 71 71 72 73 74 78 78 76 75 74 75 75 74 74 73 71 71 71 71 71 69 70 72 71 77 73 75 74 74 72 78 80 74 75 74 75 72 67 66 64 63 62 60 58 58 60 59 59 60 59 59 58 58 57 57 56 55 55 56 55 55 56 56 56
68 66 64 62 59 63 68 70 75 73 71 69 70 70 71 71 72 74 76 76 76 75 73 73 72 71 71 74 74 71 68 71 72 77 73 76 76 75 73 73 72 79 78 75 75 75 77 76 75 70 67 65 62 60 61 60 58 58 58 59 59 59 59 58 58 57 56 56 56 55 56 56 57 57
68 69 69 66 65 58 71 72 70 75 73 69 68 69 70 70 70 67 68 70 75 77 78 76 74 73 73 72 73 72 72 75 72 72 73 72 72 73 73 73 71 73 79 76 75 72 73 75 74 72 75 69 65 63 62 60 58 58 59 59 60 59 58 58 58 57 57 56 56 54 54 55 57 56
67 69 69 70 69 67 67 70 73 73 74 73 73 72 72 73 72 70 67 66 68 70 72 74 74 76 76 75 76 78 78 76 74 74 73 74 74 74 72 73 74 76 75 75 74 72 72 73 72 71 74 67 65 62 59 58 58 58 59 58 58 58 58 58 57 57 57 56 56 55 54 53 53 54
67 70 70 70 69 70 70 69 69 72 73 75 75 74 72 73 73 72 72 71 70 69 69 68 71 74 75 75 76 77 78 77 77 77 75 75 74 75 76 75 75 74 76 74 73 69 69 71 71 70 71 64 62 59 57 57 58 58 58 58 57 58 58 58 58 57 57 56 56 55 54 53 53 53
69 69 70 72 72 70 71 72 69 70 73 74 75 76 75 74 73 72 72 68 69 70 69 68 67 68 71 69 72 72 72 74 77 77 76 77 76 75 74 73 73 73 73 72 70 69 69 71 69 70 71 65 63 59 56 57 58 58 57 57 57 57 56 57 57 57 57 56 56 56 54 52 51 52
69 69 69 70 68 70 73 71 65 65 70 70 71 72 73 73 74 74 73 67 64 64 63 63 63 63 64 64 63 63 65 70 73 78 78 75 74 73 73 73 73 72 71 67 67 69 69 71 71 71 72 67 63 59 56 56 58 58 57 57 57 55 55 56 57 57 56 56 56 55 54 52 51 52
72 72 73 73 70 69 70 67 64 64 69 71 71 71 70 71 71 73 71 69 69 63 62 62 62 62 63 64 64 64 64 64 68 70 69 71 73 72 73 72 72 70 69 69 70 66 64 72 73 71 72 71 67 62 61 57 56 57 56 55 55 55 55 55 55 56 56 56 56 55 54 52 52 55
72 72 73 74 71 71 69 63 63 62 69 72 72 72 71 70 69 69 70 70 69 70 69 69 69 68 67 68 69 69 66 67 72 72 71 70 71 71 71 71 70 68 68 69 71 67 67 66 69 71 70 70 70 66 63 59 56 55 56 56 55 54 54 53 53 53 54 55 55 54 53 52 52 59
72 72 72 72 64 62 62 62 61 61 60 72 74 73 71 70 70 70 70 71 70 70 72 72 71 71 70 70 71 71 71 70 73 71 73 74 73 72 70 70 69 67 66 68 71 71 69 67 66 67 64 66 68 68 65 60 57 55 54 55 53 54 56 55 54 53 53 53 53 54 53 52 52 59
70 71 72 72 68 61 59 58 58 59 58 64 73 74 73 72 72 74 74 73 76 74 74 74 75 74 73 73 72 72 72 71 72 72 71 73 73 73 72 70 69 67 67 67 66 67 65 64 64 68 68 68 66 66 64 63 59 57 57 56 54 56 54 53 54 53 53 52 52 51 51 52 52 55
71 70 71 73 70 61 59 57 56 56 58 58 72 73 66 66 66 73 75 76 75 74 74 74 73 73 75 74 73 72 72 72 72 72 73 71 72 73 73 72 70 68 67 68 64 69 70 69 67 65 67 68 68 67 66 65 63 60 59 58 57 58 53 53 54 56 57 54 53 51 52 53 53 53
70 71 72 73 71 62 57 56 56 56 56 59 65 62 62 62 64 70 74 74 74 74 73 73 73 74 74 73 73 73 73 72 73 72 73 74 74 73 73 73 72 71 69 69 71 72 73 72 74 71 70 72 70 70 69 68 66 64 62 60 60 60 54 54 53 56 58 56 57 55 52 52 52 53
70 71 72 72 64 61 54 53 54 56 56 62 59 58 60 62 64 71 72 72 74 73 72 72 72 72 72 72 73 72 73 72 73 73 73 74 74 74 73 73 72 72 72 71 71 71 73 72 72 73 73 72 71 69 68 70 70 64 63 63 63 60 55 54 54 58 60 59 59 57 55 56 56 56
73 59 56 57 59 61 58 52 53 54 55 55 57 58 59 63 69 70 72 72 73 72 72 72 72 71 71 72 73 74 75 76 76 75 75 75 76 75 74 74 73 73 72 71 72 72 73 73 73 73 73 73 71 71 70 69 69 68 65 64 63 61 58 58 59 59 62 61 61 57 53 57 59 59
57 59 59 60 60 62 61 64 65 66 66 59 56 57 60 66 69 70 71 72 72 72 71 71 71 71 71 71 72 73 74 73 74 75 74 74 73 76 75 74 74 74 73 73 72 72 72 72 73 74 74 74 73 72 71 71 70 71 68 66 64 66 61 60 60 61 62 62 62 59 56 57 61 60
67 67 67 67 63 63 64 65 67 67 68 67 64 62 63 66 68 69 71 72 72 72 72 71 71 71 72 72 72 73 73 72 73 73 72 73 73 73 74 75 74 74 75 74 73 73 73 73 73 73 72 73 73 73 73 72 70 70 70 68 67 64 64 61 62 62 62 61 61 60 59 59 61 64
70 70 66 66 69 70 69 70 70 70 71 70 69 67 66 66 67 69 70 71 72 73 73 72 72 72 72 72 72 72 72 72 73 74 73 72 72 72 72 72 72 73 74 74 74 74 75 74 74 74 73 73 72 73 74 73 72 71 71 69 68 67 65 62 61 61 63 61 59 59 61 60 60 62
73 72 71 70 70 70 69 69 69 69 70 70 71 71 70 68 69 69 70 71 71 72 72 72 72 72 72 72 71 71 71 72 72 74 74 74 73 73 73 71 71 71 71 71 72 74 75 75 75 75 75 74 74 74 74 73 73 72 72 72 68 68 67 62 61 61 63 60 59 59 60 61 59 59
70 70 70 70 69 69 69 68 69 69 69 70 70 71 67 69 69 69 69 70 70 71 71 71 71 71 72 72 72 71 70 71 71 72 71 74 74 73 73 72 72 72 71 71 71 72 73 75 75 75 74 74 75 75 75 73 72 72 72 72 70 68 68 65 61 61 62 60 59 58 59 60 59 59
68 69 70 70 70 69 69 69 68 69 69 70 70 70 70 71 70 69 70 70 70 69 70 70 71 71 71 71 71 71 70 70 70 71 72 73 75 74 73 72 72 72 72 71 71 72 72 74 74 73 74 74 73 75 74 75 73 72 72 72 72 70 68 67 61 61 62 61 60 58 58 59 59 59
68 69 69 70 70 71 70 70 70 70 70 70 71 70 70 70 71 71 70 71 71 70 70 70 70 71 71 71 71 71 70 69 71 71 71 72 72 73 73 73 72 72 72 72 72 72 71 71 73 72 71 72 72 71 72 72 72 74 72 72 72 72 70 67 64 62 62 60 60 59 57 57 58 59
65 68 70 70 70 70 70 70 70 70 70 70 70 70 71 70 71 72 72 71 72 71 71 71 70 70 71 70 70 69 69 70 70 70 70 71 71 72 72 72 72 72 72 73 73 72 72 71 71 71 70 70 71 70 70 73 69 69 74 72 72 72 70 67 65 62 61 61 60 59 58 58 58 60
64 67 69 70 70 70 70 70 70 70 71 71 71 71 71 71 72 72 73 74 71 70 70 71 70 70 70 70 71 71 71 70 70 70 69 70 70 70 71 71 72 72 72 72 72 72 73 72 70 70 70 69 69 68 68 70 72 70 67 72 71 71 70 67 65 62 61 61 59 59 59 58 58 61
64 66 68 69 70 70 70 70 70 70 71 71 71 71 71 71 72 72 72 72 74 72 71 71 70 70 71 71 70 70 71 70 70 70 70 69 69 69 70 70 70 71 71 71 72 72 72 72 71 70 70 70 69 68 68 68 68 70 69 63 70 71 70 66 65 64 63 61 60 61 60 62 60 59
65 65 67 69 70 70 71 71 71 71 71 71 71 72 71 71 71 72 72 71 71 73 73 71 70 69 70 70 70 71 71 71 71 71 71 70 69 69 69 69 69 70 69 69 69 71 71 71 71 71 70 70 71 71 71 72 74 74 73 67 61 68 71 67 65 64 63 62 61 60 59 61 59 61
67 67 67 68 69 70 70 70 71 71 71 71 72 69 72 72 73 71 71 71 71 72 72 73 72 71 71 71 71 70 70 70 70 71 71 70 69 69 68 66 69 70 69 69 69 69 70 71 72 67 71 72 73 74 72 69 68 69 69 71 61 59 61 65 69 67 64 62 61 60 59 58 59 61
69 68 68 69 69 70 70 71 71 71 72 72 72 72 74 72 72 69 69 68 70 72 73 73 73 72 71 72 72 70 70 70 70 70 70 70 71 69 67 67 69 69 69 69 69 70 71 73 72 71 71 72 72 70 68 68 68 68 69 70 70 62 59 59 55 56 66 63 62 61 59 62 60 58
69 69 69 69 69 70 70 70 71 72 72 75 75 73 71 72 72 71 71 71 71 71 72 72 73 73 73 73 73 72 71 71 71 71 71 70 71 70 70 70 70 70 70 70 70 71 71 73 73 73 73 72 70 70 68 68 68 69 69 69 68 68 67 57 52 53 54 58 59 60 62 62 60 57
70 71 70 70 70 70 71 71 72 74 75 74 74 72 70 70 71 72 71 71 71 72 72 72 72 72 73 73 74 74 74 73 72 72 72 71 71 72 71 71 69 70 70 70 70 70 71 71 72 73 72 70 70 70 69 69 68 68 69 69 67 66 65 62 60 55 55 54 53 53 52 53 54 56
68 69 70 71 72 72 73 74 75 75 74 73 73 72 69 70 70 71 71 71 71 71 71 72 73 74 74 73 71 70 71 67 69 70 70 70 71 70 70 70 70 70 70 71 71 70 71 71 72 73 72 72 71 70 69 68 68 68 68 67 66 66 65 62 61 60 59 58 53 53 53 54 54 54